Year,Month,Day,Hour,Minute,Value (Times are PST for temperature in C)
2009,06,01,00,00,14.60
2009,06,01,00,01,14.50
2009,06,01,00,02,14.50
2009,06,01,00,03,14.50
2009,06,01,00,04,14.40
2009,06,01,00,05,14.40
2009,06,01,00,06,14.40
2009,06,01,00,07,14.40
2009,06,01,00,08,14.40
2009,06,01,00,09,14.30
2009,06,01,00,10,14.30
2009,06,01,00,11,14.30
2009,06,01,00,12,14.30
2009,06,01,00,13,14.20
2009,06,01,00,14,14.20
2009,06,01,00,15,14.20
2009,06,01,00,16,14.20
2009,06,01,00,17,14.20
2009,06,01,00,18,14.10
2009,06,01,00,19,14.10
2009,06,01,00,20,14.10
2009,06,01,00,21,14.00
2009,06,01,00,22,14.00
2009,06,01,00,23,14.00
2009,06,01,00,24,13.90
2009,06,01,00,25,13.90
2009,06,01,00,26,13.90
2009,06,01,00,27,13.80
2009,06,01,00,28,13.80
2009,06,01,00,29,13.80
2009,06,01,00,30,13.80
2009,06,01,00,31,13.70
2009,06,01,00,32,13.70
2009,06,01,00,33,13.70
2009,06,01,00,34,13.70
2009,06,01,00,35,13.60
2009,06,01,00,36,13.60
2009,06,01,00,37,13.60
2009,06,01,00,38,13.60
2009,06,01,00,39,13.50
2009,06,01,00,40,13.50
2009,06,01,00,41,13.50
2009,06,01,00,42,13.40
2009,06,01,00,43,13.40
2009,06,01,00,44,13.40
2009,06,01,00,45,13.40
2009,06,01,00,46,13.40
2009,06,01,00,47,13.40
2009,06,01,00,48,13.40
2009,06,01,00,49,13.40
2009,06,01,00,50,13.30
2009,06,01,00,51,13.30
2009,06,01,00,52,13.30
2009,06,01,00,53,13.30
2009,06,01,00,54,13.30
2009,06,01,00,55,13.30
2009,06,01,00,56,13.30
2009,06,01,00,57,13.20
2009,06,01,00,58,13.20
2009,06,01,00,59,13.20
2009,06,01,01,00,13.20
2009,06,01,01,01,13.20
2009,06,01,01,02,13.20
2009,06,01,01,03,13.10
2009,06,01,01,04,13.10
2009,06,01,01,05,13.10
2009,06,01,01,06,13.10
2009,06,01,01,07,13.10
2009,06,01,01,08,13.10
2009,06,01,01,09,13.10
2009,06,01,01,10,13.10
2009,06,01,01,11,13.10
2009,06,01,01,12,13.10
2009,06,01,01,13,13.00
2009,06,01,01,14,13.00
2009,06,01,01,15,13.00
2009,06,01,01,16,13.00
2009,06,01,01,17,13.00
2009,06,01,01,18,13.00
2009,06,01,01,19,12.90
2009,06,01,01,20,12.90
2009,06,01,01,21,12.90
2009,06,01,01,22,12.90
2009,06,01,01,23,12.90
2009,06,01,01,24,12.90
2009,06,01,01,25,12.90
2009,06,01,01,26,12.90
2009,06,01,01,27,12.80
2009,06,01,01,28,12.80
2009,06,01,01,29,12.80
2009,06,01,01,30,12.80
2009,06,01,01,31,12.80
2009,06,01,01,32,12.80
2009,06,01,01,33,12.70
2009,06,01,01,34,12.70
2009,06,01,01,35,12.70
2009,06,01,01,36,12.70
2009,06,01,01,37,12.70
2009,06,01,01,38,12.70
2009,06,01,01,39,12.60
2009,06,01,01,40,12.60
2009,06,01,01,41,12.60
2009,06,01,01,42,12.60
2009,06,01,01,43,12.60
2009,06,01,01,44,12.60
2009,06,01,01,45,12.60
2009,06,01,01,46,12.50
2009,06,01,01,47,12.50
2009,06,01,01,48,12.50
2009,06,01,01,49,12.50
2009,06,01,01,50,12.50
2009,06,01,01,51,12.50
2009,06,01,01,52,12.50
2009,06,01,01,53,12.40
2009,06,01,01,54,12.40
2009,06,01,01,55,12.40
2009,06,01,01,56,12.40
2009,06,01,01,57,12.40
2009,06,01,01,58,12.40
2009,06,01,01,59,12.40
2009,06,01,02,00,12.40
2009,06,01,02,01,12.40
2009,06,01,02,02,12.40
2009,06,01,02,03,12.40
2009,06,01,02,04,12.30
2009,06,01,02,05,12.30
2009,06,01,02,06,12.30
2009,06,01,02,07,12.30
2009,06,01,02,08,12.30
2009,06,01,02,09,12.30
2009,06,01,02,10,12.30
2009,06,01,02,11,12.30
2009,06,01,02,12,12.40
2009,06,01,02,13,12.40
2009,06,01,02,14,12.40
2009,06,01,02,15,12.40
2009,06,01,02,16,12.40
2009,06,01,02,17,12.40
2009,06,01,02,18,12.40
2009,06,01,02,19,12.40
2009,06,01,02,20,12.40
2009,06,01,02,21,12.40
2009,06,01,02,22,12.40
2009,06,01,02,23,12.40
2009,06,01,02,24,12.50
2009,06,01,02,25,12.50
2009,06,01,02,26,12.50
2009,06,01,02,27,12.50
2009,06,01,02,28,12.50
2009,06,01,02,29,12.50
2009,06,01,02,30,12.40
2009,06,01,02,31,12.40
2009,06,01,02,32,12.40
2009,06,01,02,33,12.40
2009,06,01,02,34,12.40
2009,06,01,02,35,12.40
2009,06,01,02,36,12.40
2009,06,01,02,37,12.40
2009,06,01,02,38,12.40
2009,06,01,02,39,12.40
2009,06,01,02,40,12.50
2009,06,01,02,41,12.50
2009,06,01,02,42,12.50
2009,06,01,02,43,12.50
2009,06,01,02,44,12.60
2009,06,01,02,45,12.60
2009,06,01,02,46,12.60
2009,06,01,02,47,12.60
2009,06,01,02,48,12.60
2009,06,01,02,49,12.60
2009,06,01,02,50,12.60
2009,06,01,02,51,12.60
2009,06,01,02,52,12.60
2009,06,01,02,53,12.60
2009,06,01,02,54,12.60
2009,06,01,02,55,12.60
2009,06,01,02,56,12.60
2009,06,01,02,57,12.60
2009,06,01,02,58,12.60
2009,06,01,02,59,12.60
2009,06,01,03,00,12.60
2009,06,01,03,01,12.60
2009,06,01,03,02,12.60
2009,06,01,03,03,12.60
2009,06,01,03,04,12.60
2009,06,01,03,05,12.60
2009,06,01,03,06,12.50
2009,06,01,03,07,12.50
2009,06,01,03,08,12.60
2009,06,01,03,09,12.60
2009,06,01,03,10,12.50
2009,06,01,03,11,12.50
2009,06,01,03,12,12.50
2009,06,01,03,13,12.50
2009,06,01,03,14,12.50
2009,06,01,03,15,12.50
2009,06,01,03,16,12.50
2009,06,01,03,17,12.40
2009,06,01,03,18,12.40
2009,06,01,03,19,12.40
2009,06,01,03,20,12.40
2009,06,01,03,21,12.40
2009,06,01,03,22,12.40
2009,06,01,03,23,12.30
2009,06,01,03,24,12.30
2009,06,01,03,25,12.30
2009,06,01,03,26,12.30
2009,06,01,03,27,12.30
2009,06,01,03,28,12.30
2009,06,01,03,29,12.30
2009,06,01,03,30,12.30
2009,06,01,03,31,12.30
2009,06,01,03,32,12.20
2009,06,01,03,33,12.20
2009,06,01,03,34,12.20
2009,06,01,03,35,12.20
2009,06,01,03,36,12.20
2009,06,01,03,37,12.20
2009,06,01,03,38,12.20
2009,06,01,03,39,12.20
2009,06,01,03,40,12.20
2009,06,01,03,41,12.20
2009,06,01,03,42,12.20
2009,06,01,03,43,12.20
2009,06,01,03,44,12.10
2009,06,01,03,45,12.10
2009,06,01,03,46,12.10
2009,06,01,03,47,12.10
2009,06,01,03,48,12.10
2009,06,01,03,49,12.10
2009,06,01,03,50,12.10
2009,06,01,03,51,12.00
2009,06,01,03,52,12.00
2009,06,01,03,53,12.00
2009,06,01,03,54,12.00
2009,06,01,03,55,11.90
2009,06,01,03,56,11.90
2009,06,01,03,57,11.90
2009,06,01,03,58,11.90
2009,06,01,03,59,11.90
2009,06,01,04,00,11.90
2009,06,01,04,01,11.80
2009,06,01,04,02,11.80
2009,06,01,04,03,11.80
2009,06,01,04,04,11.80
2009,06,01,04,05,11.80
2009,06,01,04,06,11.70
2009,06,01,04,07,11.70
2009,06,01,04,08,11.70
2009,06,01,04,09,11.70
2009,06,01,04,10,11.60
2009,06,01,04,11,11.60
2009,06,01,04,12,11.60
2009,06,01,04,13,11.60
2009,06,01,04,14,11.60
2009,06,01,04,15,11.50
2009,06,01,04,16,11.50
2009,06,01,04,17,11.50
2009,06,01,04,18,11.40
2009,06,01,04,19,11.40
2009,06,01,04,20,11.40
2009,06,01,04,21,11.40
2009,06,01,04,22,11.40
2009,06,01,04,23,11.40
2009,06,01,04,24,11.40
2009,06,01,04,25,11.40
2009,06,01,04,26,11.40
2009,06,01,04,27,11.40
2009,06,01,04,28,11.30
2009,06,01,04,29,11.30
2009,06,01,04,30,11.30
2009,06,01,04,31,11.30
2009,06,01,04,32,11.30
2009,06,01,04,33,11.30
2009,06,01,04,34,11.30
2009,06,01,04,35,11.30
2009,06,01,04,36,11.30
2009,06,01,04,37,11.30
2009,06,01,04,38,11.20
2009,06,01,04,39,11.20
2009,06,01,04,40,11.20
2009,06,01,04,41,11.20
2009,06,01,04,42,11.20
2009,06,01,04,43,11.20
2009,06,01,04,44,11.20
2009,06,01,04,45,11.20
2009,06,01,04,46,11.20
2009,06,01,04,47,11.20
2009,06,01,04,48,11.20
2009,06,01,04,49,11.20
2009,06,01,04,50,11.20
2009,06,01,04,51,11.20
2009,06,01,04,52,11.20
2009,06,01,04,53,11.20
2009,06,01,04,54,11.20
2009,06,01,04,55,11.20
2009,06,01,04,56,11.20
2009,06,01,04,57,11.20
2009,06,01,04,58,11.20
2009,06,01,04,59,11.20
2009,06,01,05,00,11.20
2009,06,01,05,01,11.20
2009,06,01,05,02,11.20
2009,06,01,05,03,11.20
2009,06,01,05,04,11.10
2009,06,01,05,05,11.10
2009,06,01,05,06,11.10
2009,06,01,05,07,11.10
2009,06,01,05,08,11.10
2009,06,01,05,09,11.10
2009,06,01,05,10,11.10
2009,06,01,05,11,11.00
2009,06,01,05,12,11.00
2009,06,01,05,13,11.00
2009,06,01,05,14,11.00
2009,06,01,05,15,11.00
2009,06,01,05,16,11.00
2009,06,01,05,17,11.00
2009,06,01,05,18,11.00
2009,06,01,05,19,11.00
2009,06,01,05,20,11.00
2009,06,01,05,21,11.00
2009,06,01,05,22,11.00
2009,06,01,05,23,11.00
2009,06,01,05,24,11.00
2009,06,01,05,25,11.00
2009,06,01,05,26,11.00
2009,06,01,05,27,11.00
2009,06,01,05,28,10.90
2009,06,01,05,29,11.00
2009,06,01,05,30,11.00
2009,06,01,05,31,11.00
2009,06,01,05,32,11.00
2009,06,01,05,33,11.00
2009,06,01,05,34,11.00
2009,06,01,05,35,11.00
2009,06,01,05,36,10.90
2009,06,01,05,37,10.90
2009,06,01,05,38,10.90
2009,06,01,05,39,10.90
2009,06,01,05,40,10.90
2009,06,01,05,41,10.90
2009,06,01,05,42,10.90
2009,06,01,05,43,10.90
2009,06,01,05,44,10.90
2009,06,01,05,45,10.90
2009,06,01,05,46,10.90
2009,06,01,05,47,10.90
2009,06,01,05,48,10.90
2009,06,01,05,49,10.90
2009,06,01,05,50,10.90
2009,06,01,05,51,10.90
2009,06,01,05,52,10.90
2009,06,01,05,53,10.90
2009,06,01,05,54,10.90
2009,06,01,05,55,10.90
2009,06,01,05,56,10.90
2009,06,01,05,57,10.90
2009,06,01,05,58,10.90
2009,06,01,05,59,10.90
2009,06,01,06,00,10.90
2009,06,01,06,01,10.90
2009,06,01,06,02,10.90
2009,06,01,06,03,11.00
2009,06,01,06,04,11.00
2009,06,01,06,05,11.00
2009,06,01,06,06,11.00
2009,06,01,06,07,11.00
2009,06,01,06,08,11.10
2009,06,01,06,09,11.10
2009,06,01,06,10,11.10
2009,06,01,06,11,11.10
2009,06,01,06,12,11.10
2009,06,01,06,13,11.10
2009,06,01,06,14,11.10
2009,06,01,06,15,11.20
2009,06,01,06,16,11.20
2009,06,01,06,17,11.20
2009,06,01,06,18,11.20
2009,06,01,06,19,11.20
2009,06,01,06,20,11.20
2009,06,01,06,21,11.30
2009,06,01,06,22,11.30
2009,06,01,06,23,11.30
2009,06,01,06,24,11.30
2009,06,01,06,25,11.30
2009,06,01,06,26,11.30
2009,06,01,06,27,11.30
2009,06,01,06,28,11.30
2009,06,01,06,29,11.30
2009,06,01,06,30,11.40
2009,06,01,06,31,11.40
2009,06,01,06,32,11.40
2009,06,01,06,33,11.50
2009,06,01,06,34,11.50
2009,06,01,06,35,11.50
2009,06,01,06,36,11.60
2009,06,01,06,37,11.60
2009,06,01,06,38,11.60
2009,06,01,06,39,11.60
2009,06,01,06,40,11.70
2009,06,01,06,41,11.70
2009,06,01,06,42,11.70
2009,06,01,06,43,11.80
2009,06,01,06,44,11.80
2009,06,01,06,45,11.90
2009,06,01,06,46,11.90
2009,06,01,06,47,12.00
2009,06,01,06,48,12.00
2009,06,01,06,49,12.10
2009,06,01,06,50,12.10
2009,06,01,06,51,12.10
2009,06,01,06,52,12.20
2009,06,01,06,53,12.20
2009,06,01,06,54,12.20
2009,06,01,06,55,12.20
2009,06,01,06,56,12.30
2009,06,01,06,57,12.30
2009,06,01,06,58,12.30
2009,06,01,06,59,12.40
2009,06,01,07,00,12.40
2009,06,01,07,01,12.50
2009,06,01,07,02,12.50
2009,06,01,07,03,12.60
2009,06,01,07,04,12.60
2009,06,01,07,05,12.60
2009,06,01,07,06,12.70
2009,06,01,07,07,12.70
2009,06,01,07,08,12.70
2009,06,01,07,09,12.80
2009,06,01,07,10,12.80
2009,06,01,07,11,12.80
2009,06,01,07,12,12.90
2009,06,01,07,13,12.90
2009,06,01,07,14,12.90
2009,06,01,07,15,13.00
2009,06,01,07,16,13.00
2009,06,01,07,17,13.10
2009,06,01,07,18,13.10
2009,06,01,07,19,13.10
2009,06,01,07,20,13.20
2009,06,01,07,21,13.20
2009,06,01,07,22,13.20
2009,06,01,07,23,13.30
2009,06,01,07,24,13.30
2009,06,01,07,25,13.30
2009,06,01,07,26,13.40
2009,06,01,07,27,13.40
2009,06,01,07,28,13.50
2009,06,01,07,29,13.50
2009,06,01,07,30,13.60
2009,06,01,07,31,13.60
2009,06,01,07,32,13.70
2009,06,01,07,33,13.70
2009,06,01,07,34,13.70
2009,06,01,07,35,13.80
2009,06,01,07,36,13.80
2009,06,01,07,37,13.90
2009,06,01,07,38,13.90
2009,06,01,07,39,13.90
2009,06,01,07,40,14.00
2009,06,01,07,41,14.00
2009,06,01,07,42,14.10
2009,06,01,07,43,14.10
2009,06,01,07,44,14.10
2009,06,01,07,45,14.20
2009,06,01,07,46,14.20
2009,06,01,07,47,14.20
2009,06,01,07,48,14.30
2009,06,01,07,49,14.30
2009,06,01,07,50,14.40
2009,06,01,07,51,14.40
2009,06,01,07,52,14.50
2009,06,01,07,53,14.50
2009,06,01,07,54,14.60
2009,06,01,07,55,14.60
2009,06,01,07,56,14.70
2009,06,01,07,57,14.70
2009,06,01,07,58,14.80
2009,06,01,07,59,14.80
2009,06,01,08,00,14.90
2009,06,01,08,01,15.00
2009,06,01,08,02,15.00
2009,06,01,08,03,15.00
2009,06,01,08,04,15.00
2009,06,01,08,05,15.00
2009,06,01,08,06,15.00
2009,06,01,08,07,15.10
2009,06,01,08,08,15.20
2009,06,01,08,09,15.30
2009,06,01,08,10,15.30
2009,06,01,08,11,15.40
2009,06,01,08,12,15.50
2009,06,01,08,13,15.50
2009,06,01,08,14,15.60
2009,06,01,08,15,15.70
2009,06,01,08,16,15.80
2009,06,01,08,17,15.90
2009,06,01,08,18,16.00
2009,06,01,08,19,16.10
2009,06,01,08,20,16.30
2009,06,01,08,21,16.40
2009,06,01,08,22,16.50
2009,06,01,08,23,16.60
2009,06,01,08,24,16.70
2009,06,01,08,25,16.80
2009,06,01,08,26,16.90
2009,06,01,08,27,17.00
2009,06,01,08,28,17.10
2009,06,01,08,29,17.20
2009,06,01,08,30,17.30
2009,06,01,08,31,17.40
2009,06,01,08,32,17.50
2009,06,01,08,33,17.60
2009,06,01,08,34,17.70
2009,06,01,08,35,17.80
2009,06,01,08,36,17.90
2009,06,01,08,37,18.00
2009,06,01,08,38,18.10
2009,06,01,08,39,18.20
2009,06,01,08,40,18.20
2009,06,01,08,41,18.30
2009,06,01,08,42,18.40
2009,06,01,08,43,18.50
2009,06,01,08,44,18.60
2009,06,01,08,45,18.60
2009,06,01,08,46,18.70
2009,06,01,08,47,18.70
2009,06,01,08,48,18.80
2009,06,01,08,49,18.80
2009,06,01,08,50,18.90
2009,06,01,08,51,18.90
2009,06,01,08,52,19.00
2009,06,01,08,53,19.10
2009,06,01,08,54,19.10
2009,06,01,08,55,19.20
2009,06,01,08,56,19.30
2009,06,01,08,57,19.30
2009,06,01,08,58,19.30
2009,06,01,08,59,19.30
2009,06,01,09,00,19.30
2009,06,01,09,01,19.40
2009,06,01,09,02,19.40
2009,06,01,09,03,19.40
2009,06,01,09,04,19.40
2009,06,01,09,05,19.50
2009,06,01,09,06,19.50
2009,06,01,09,07,19.60
2009,06,01,09,08,19.60
2009,06,01,09,09,19.60
2009,06,01,09,10,19.70
2009,06,01,09,11,19.70
2009,06,01,09,12,19.70
2009,06,01,09,13,19.80
2009,06,01,09,14,19.80
2009,06,01,09,15,19.90
2009,06,01,09,16,19.90
2009,06,01,09,17,20.00
2009,06,01,09,18,20.00
2009,06,01,09,19,20.10
2009,06,01,09,20,20.10
2009,06,01,09,21,20.10
2009,06,01,09,22,20.20
2009,06,01,09,23,20.20
2009,06,01,09,24,20.30
2009,06,01,09,25,20.40
2009,06,01,09,26,20.50
2009,06,01,09,27,20.60
2009,06,01,09,28,20.70
2009,06,01,09,29,20.70
2009,06,01,09,30,20.80
2009,06,01,09,31,20.90
2009,06,01,09,32,21.00
2009,06,01,09,33,21.10
2009,06,01,09,34,21.20
2009,06,01,09,35,21.30
2009,06,01,09,36,21.30
2009,06,01,09,37,21.30
2009,06,01,09,38,21.40
2009,06,01,09,39,21.40
2009,06,01,09,40,21.40
2009,06,01,09,41,21.40
2009,06,01,09,42,21.50
2009,06,01,09,43,21.50
2009,06,01,09,44,21.60
2009,06,01,09,45,21.60
2009,06,01,09,46,21.70
2009,06,01,09,47,21.70
2009,06,01,09,48,21.80
2009,06,01,09,49,21.80
2009,06,01,09,50,21.90
2009,06,01,09,51,21.90
2009,06,01,09,52,21.90
2009,06,01,09,53,21.90
2009,06,01,09,54,22.00
2009,06,01,09,55,22.00
2009,06,01,09,56,22.10
2009,06,01,09,57,22.10
2009,06,01,09,58,22.10
2009,06,01,09,59,22.20
2009,06,01,10,00,22.20
2009,06,01,10,01,22.20
2009,06,01,10,02,22.20
2009,06,01,10,03,22.30
2009,06,01,10,04,22.30
2009,06,01,10,05,22.20
2009,06,01,10,06,22.10
2009,06,01,10,07,22.10
2009,06,01,10,08,22.10
2009,06,01,10,09,22.10
2009,06,01,10,10,22.10
2009,06,01,10,11,22.10
2009,06,01,10,12,22.20
2009,06,01,10,13,22.20
2009,06,01,10,14,22.30
2009,06,01,10,15,22.40
2009,06,01,10,16,22.40
2009,06,01,10,17,22.50
2009,06,01,10,18,22.60
2009,06,01,10,19,22.60
2009,06,01,10,20,22.60
2009,06,01,10,21,22.60
2009,06,01,10,22,22.60
2009,06,01,10,23,22.60
2009,06,01,10,24,22.70
2009,06,01,10,25,22.70
2009,06,01,10,26,22.80
2009,06,01,10,27,22.80
2009,06,01,10,28,22.80
2009,06,01,10,29,22.80
2009,06,01,10,30,22.90
2009,06,01,10,31,22.90
2009,06,01,10,32,23.00
2009,06,01,10,33,23.00
2009,06,01,10,34,23.10
2009,06,01,10,35,23.20
2009,06,01,10,36,23.20
2009,06,01,10,37,23.30
2009,06,01,10,38,23.40
2009,06,01,10,39,23.40
2009,06,01,10,40,23.40
2009,06,01,10,41,23.40
2009,06,01,10,42,23.50
2009,06,01,10,43,23.60
2009,06,01,10,44,23.70
2009,06,01,10,45,23.70
2009,06,01,10,46,23.90
2009,06,01,10,47,24.00
2009,06,01,10,48,24.10
2009,06,01,10,49,24.20
2009,06,01,10,50,24.30
2009,06,01,10,51,24.30
2009,06,01,10,52,24.20
2009,06,01,10,53,24.20
2009,06,01,10,54,24.30
2009,06,01,10,55,24.40
2009,06,01,10,56,24.40
2009,06,01,10,57,24.40
2009,06,01,10,58,24.50
2009,06,01,10,59,24.50
2009,06,01,11,00,24.50
2009,06,01,11,01,24.40
2009,06,01,11,02,24.40
2009,06,01,11,03,24.50
2009,06,01,11,04,24.60
2009,06,01,11,05,24.80
2009,06,01,11,06,24.90
2009,06,01,11,07,25.00
2009,06,01,11,08,25.00
2009,06,01,11,09,25.10
2009,06,01,11,10,25.20
2009,06,01,11,11,25.30
2009,06,01,11,12,25.40
2009,06,01,11,13,25.40
2009,06,01,11,14,25.40
2009,06,01,11,15,25.40
2009,06,01,11,16,25.40
2009,06,01,11,17,25.30
2009,06,01,11,18,25.20
2009,06,01,11,19,25.10
2009,06,01,11,20,25.10
2009,06,01,11,21,25.10
2009,06,01,11,22,25.00
2009,06,01,11,23,24.90
2009,06,01,11,24,24.80
2009,06,01,11,25,24.80
2009,06,01,11,26,24.80
2009,06,01,11,27,24.90
2009,06,01,11,28,24.90
2009,06,01,11,29,24.90
2009,06,01,11,30,24.80
2009,06,01,11,31,24.70
2009,06,01,11,32,24.60
2009,06,01,11,33,24.60
2009,06,01,11,34,24.50
2009,06,01,11,35,24.40
2009,06,01,11,36,24.30
2009,06,01,11,37,24.30
2009,06,01,11,38,24.30
2009,06,01,11,39,24.30
2009,06,01,11,40,24.30
2009,06,01,11,41,24.40
2009,06,01,11,42,24.40
2009,06,01,11,43,24.30
2009,06,01,11,44,24.30
2009,06,01,11,45,24.40
2009,06,01,11,46,24.40
2009,06,01,11,47,24.40
2009,06,01,11,48,24.50
2009,06,01,11,49,24.60
2009,06,01,11,50,24.60
2009,06,01,11,51,24.60
2009,06,01,11,52,24.70
2009,06,01,11,53,24.70
2009,06,01,11,54,24.70
2009,06,01,11,55,24.70
2009,06,01,11,56,24.70
2009,06,01,11,57,24.70
2009,06,01,11,58,24.80
2009,06,01,11,59,24.80
2009,06,01,12,00,24.70
2009,06,01,12,01,24.70
2009,06,01,12,02,24.60
2009,06,01,12,03,24.60
2009,06,01,12,04,24.50
2009,06,01,12,05,24.40
2009,06,01,12,06,24.40
2009,06,01,12,07,24.40
2009,06,01,12,08,24.40
2009,06,01,12,09,24.30
2009,06,01,12,10,24.30
2009,06,01,12,11,24.30
2009,06,01,12,12,24.30
2009,06,01,12,13,24.30
2009,06,01,12,14,24.30
2009,06,01,12,15,24.30
2009,06,01,12,16,24.30
2009,06,01,12,17,24.30
2009,06,01,12,18,24.30
2009,06,01,12,19,24.30
2009,06,01,12,20,24.40
2009,06,01,12,21,24.40
2009,06,01,12,22,24.40
2009,06,01,12,23,24.40
2009,06,01,12,24,24.30
2009,06,01,12,25,24.20
2009,06,01,12,26,24.20
2009,06,01,12,27,24.10
2009,06,01,12,28,23.90
2009,06,01,12,29,23.80
2009,06,01,12,30,23.80
2009,06,01,12,31,23.80
2009,06,01,12,32,23.80
2009,06,01,12,33,23.80
2009,06,01,12,34,23.90
2009,06,01,12,35,24.00
2009,06,01,12,36,24.00
2009,06,01,12,37,24.10
2009,06,01,12,38,24.20
2009,06,01,12,39,24.10
2009,06,01,12,40,24.00
2009,06,01,12,41,23.90
2009,06,01,12,42,23.90
2009,06,01,12,43,23.90
2009,06,01,12,44,23.90
2009,06,01,12,45,24.00
2009,06,01,12,46,24.10
2009,06,01,12,47,24.20
2009,06,01,12,48,24.10
2009,06,01,12,49,24.00
2009,06,01,12,50,24.00
2009,06,01,12,51,24.00
2009,06,01,12,52,24.10
2009,06,01,12,53,24.00
2009,06,01,12,54,24.00
2009,06,01,12,55,24.00
2009,06,01,12,56,24.10
2009,06,01,12,57,24.10
2009,06,01,12,58,24.20
2009,06,01,12,59,24.20
2009,06,01,13,00,24.20
2009,06,01,13,01,24.20
2009,06,01,13,02,24.20
2009,06,01,13,03,24.30
2009,06,01,13,04,24.30
2009,06,01,13,05,24.30
2009,06,01,13,06,24.30
2009,06,01,13,07,24.40
2009,06,01,13,08,24.50
2009,06,01,13,09,24.60
2009,06,01,13,10,24.60
2009,06,01,13,11,24.70
2009,06,01,13,12,24.80
2009,06,01,13,13,24.80
2009,06,01,13,14,24.90
2009,06,01,13,15,25.00
2009,06,01,13,16,25.10
2009,06,01,13,17,25.20
2009,06,01,13,18,25.30
2009,06,01,13,19,25.40
2009,06,01,13,20,25.60
2009,06,01,13,21,25.80
2009,06,01,13,22,25.90
2009,06,01,13,23,26.00
2009,06,01,13,24,26.00
2009,06,01,13,25,26.00
2009,06,01,13,26,26.00
2009,06,01,13,27,25.90
2009,06,01,13,28,25.90
2009,06,01,13,29,25.80
2009,06,01,13,30,25.90
2009,06,01,13,31,25.90
2009,06,01,13,32,25.90
2009,06,01,13,33,26.00
2009,06,01,13,34,26.10
2009,06,01,13,35,26.20
2009,06,01,13,36,26.30
2009,06,01,13,37,26.40
2009,06,01,13,38,26.50
2009,06,01,13,39,26.50
2009,06,01,13,40,26.60
2009,06,01,13,41,26.80
2009,06,01,13,42,26.80
2009,06,01,13,43,26.90
2009,06,01,13,44,26.90
2009,06,01,13,45,27.00
2009,06,01,13,46,27.00
2009,06,01,13,47,27.10
2009,06,01,13,48,27.10
2009,06,01,13,49,27.10
2009,06,01,13,50,27.10
2009,06,01,13,51,27.20
2009,06,01,13,52,27.30
2009,06,01,13,53,27.40
2009,06,01,13,54,27.50
2009,06,01,13,55,27.50
2009,06,01,13,56,27.50
2009,06,01,13,57,27.60
2009,06,01,13,58,28.00
2009,06,01,13,59,28.00
2009,06,01,14,00,28.10
2009,06,01,14,01,28.10
2009,06,01,14,02,28.10
2009,06,01,14,03,28.00
2009,06,01,14,04,28.10
2009,06,01,14,05,28.20
2009,06,01,14,06,28.20
2009,06,01,14,07,28.10
2009,06,01,14,08,28.10
2009,06,01,14,09,28.10
2009,06,01,14,10,28.10
2009,06,01,14,11,28.10
2009,06,01,14,12,28.20
2009,06,01,14,13,28.20
2009,06,01,14,14,28.30
2009,06,01,14,15,28.30
2009,06,01,14,16,28.40
2009,06,01,14,17,28.40
2009,06,01,14,18,28.30
2009,06,01,14,19,28.10
2009,06,01,14,20,27.90
2009,06,01,14,21,27.80
2009,06,01,14,22,27.60
2009,06,01,14,23,27.60
2009,06,01,14,24,27.70
2009,06,01,14,25,27.80
2009,06,01,14,26,27.80
2009,06,01,14,27,27.80
2009,06,01,14,28,27.90
2009,06,01,14,29,27.90
2009,06,01,14,30,28.00
2009,06,01,14,31,28.10
2009,06,01,14,32,28.20
2009,06,01,14,33,28.20
2009,06,01,14,34,28.20
2009,06,01,14,35,28.20
2009,06,01,14,36,28.20
2009,06,01,14,37,28.20
2009,06,01,14,38,28.20
2009,06,01,14,39,28.20
2009,06,01,14,40,28.20
2009,06,01,14,41,28.30
2009,06,01,14,42,28.30
2009,06,01,14,43,28.30
2009,06,01,14,44,28.40
2009,06,01,14,45,28.30
2009,06,01,14,46,28.30
2009,06,01,14,47,28.30
2009,06,01,14,48,28.30
2009,06,01,14,49,28.30
2009,06,01,14,50,28.30
2009,06,01,14,51,28.30
2009,06,01,14,52,28.20
2009,06,01,14,53,28.20
2009,06,01,14,54,28.20
2009,06,01,14,55,28.30
2009,06,01,14,56,28.40
2009,06,01,14,57,28.50
2009,06,01,14,58,28.50
2009,06,01,14,59,28.40
2009,06,01,15,00,28.30
2009,06,01,15,01,28.30
2009,06,01,15,02,28.30
2009,06,01,15,03,28.30
2009,06,01,15,04,28.30
2009,06,01,15,05,28.20
2009,06,01,15,06,28.10
2009,06,01,15,07,28.00
2009,06,01,15,08,27.90
2009,06,01,15,09,27.90
2009,06,01,15,10,27.80
2009,06,01,15,11,27.80
2009,06,01,15,12,27.80
2009,06,01,15,13,27.80
2009,06,01,15,14,27.80
2009,06,01,15,15,27.90
2009,06,01,15,16,27.90
2009,06,01,15,17,27.80
2009,06,01,15,18,27.80
2009,06,01,15,19,27.80
2009,06,01,15,20,27.80
2009,06,01,15,21,27.80
2009,06,01,15,22,27.80
2009,06,01,15,23,27.90
2009,06,01,15,24,27.90
2009,06,01,15,25,27.90
2009,06,01,15,26,28.00
2009,06,01,15,27,28.00
2009,06,01,15,28,28.00
2009,06,01,15,29,28.10
2009,06,01,15,30,28.10
2009,06,01,15,31,28.10
2009,06,01,15,32,28.20
2009,06,01,15,33,28.20
2009,06,01,15,34,28.30
2009,06,01,15,35,28.40
2009,06,01,15,36,28.50
2009,06,01,15,37,28.50
2009,06,01,15,38,28.60
2009,06,01,15,39,28.60
2009,06,01,15,40,28.70
2009,06,01,15,41,28.60
2009,06,01,15,42,28.50
2009,06,01,15,43,28.40
2009,06,01,15,44,28.40
2009,06,01,15,45,28.20
2009,06,01,15,46,28.00
2009,06,01,15,47,28.00
2009,06,01,15,48,28.00
2009,06,01,15,49,28.10
2009,06,01,15,50,28.10
2009,06,01,15,51,28.10
2009,06,01,15,52,28.10
2009,06,01,15,53,28.10
2009,06,01,15,54,28.20
2009,06,01,15,55,28.30
2009,06,01,15,56,28.30
2009,06,01,15,57,28.30
2009,06,01,15,58,28.30
2009,06,01,15,59,28.30
2009,06,01,16,00,28.40
2009,06,01,16,01,28.40
2009,06,01,16,02,28.30
2009,06,01,16,03,28.20
2009,06,01,16,04,28.00
2009,06,01,16,05,27.90
2009,06,01,16,06,27.90
2009,06,01,16,07,27.90
2009,06,01,16,08,27.90
2009,06,01,16,09,28.00
2009,06,01,16,10,28.10
2009,06,01,16,11,28.20
2009,06,01,16,12,28.30
2009,06,01,16,13,28.20
2009,06,01,16,14,28.00
2009,06,01,16,15,28.00
2009,06,01,16,16,27.90
2009,06,01,16,17,27.90
2009,06,01,16,18,27.90
2009,06,01,16,19,27.70
2009,06,01,16,20,27.60
2009,06,01,16,21,27.50
2009,06,01,16,22,27.50
2009,06,01,16,23,27.50
2009,06,01,16,24,27.50
2009,06,01,16,25,27.50
2009,06,01,16,26,27.50
2009,06,01,16,27,27.50
2009,06,01,16,28,27.50
2009,06,01,16,29,27.50
2009,06,01,16,30,27.60
2009,06,01,16,31,27.70
2009,06,01,16,32,27.70
2009,06,01,16,33,27.60
2009,06,01,16,34,27.50
2009,06,01,16,35,27.40
2009,06,01,16,36,27.40
2009,06,01,16,37,27.40
2009,06,01,16,38,27.40
2009,06,01,16,39,27.50
2009,06,01,16,40,27.50
2009,06,01,16,41,27.50
2009,06,01,16,42,27.50
2009,06,01,16,43,27.40
2009,06,01,16,44,27.40
2009,06,01,16,45,27.40
2009,06,01,16,46,27.40
2009,06,01,16,47,27.30
2009,06,01,16,48,27.30
2009,06,01,16,49,27.30
2009,06,01,16,50,27.30
2009,06,01,16,51,27.30
2009,06,01,16,52,27.30
2009,06,01,16,53,27.40
2009,06,01,16,54,27.40
2009,06,01,16,55,27.40
2009,06,01,16,56,27.40
2009,06,01,16,57,27.40
2009,06,01,16,58,27.40
2009,06,01,16,59,27.40
2009,06,01,17,00,27.50
2009,06,01,17,01,27.60
2009,06,01,17,02,27.70
2009,06,01,17,03,27.80
2009,06,01,17,04,27.80
2009,06,01,17,05,27.80
2009,06,01,17,06,27.80
2009,06,01,17,07,27.70
2009,06,01,17,08,27.60
2009,06,01,17,09,27.50
2009,06,01,17,10,27.50
2009,06,01,17,11,27.50
2009,06,01,17,12,27.50
2009,06,01,17,13,27.60
2009,06,01,17,14,27.60
2009,06,01,17,15,27.70
2009,06,01,17,16,27.70
2009,06,01,17,17,27.80
2009,06,01,17,18,27.90
2009,06,01,17,19,27.90